Location: Ponte Samoggia
(44.5667°N, 11.1333°E)
Time: 21:49:34
(UTC+00:00)

ADEOS II - Pass Details

Date: 26 May 2022
Orbit: 799 x 800 km, 98.6° (Epoch: 29 June)

Event Time Altitude Azimuth Distance (km) Brightness Sun altitude
Rises 01:37:48 0° 12° (NNE) 3,317 6.6 -16.4°
Reaches altitude 10° 01:40:08 10° 11° (N) 2,382 5.6 -16.2°
Maximum altitude 01:45:23 76° 287° (WNW) 827 2.1 -15.6°
Enters shadow 01:48:44 23° 204° (SSW) 1,645 3.1 -15.3°
